Regional Weather Roundup
Issued by NWS Northern Indiana

Home | Current Version | Previous Version | Graphics & Text | Print | Product List | Glossary On
Versions: 1 2 3 4 5 6 7 8 9 10 11 12 13 14 15 16 17 18 19 20 21 22 23 24 25 26 27 28 29 30 31 32 33 34 35 36 37 38 39 40 41 42 43 44 45 46 47 48 49 50
000
ASUS43 KIWX 241700
RWRIWX

KIWX WEATHER ROUNDUP
NATIONAL WEATHER SERVICE NORTHERN INDIANA
1200 PM EST TUE JAN 24 2017

NOTE: "FAIR" INDICATES FEW OR NO CLOUDS BELOW 12,000 FEET WITH NO
SIGNIFICANT WEATHER AND/OR OBSTRUCTIONS TO VISIBILITY.

* THESE STATIONS ARE NOT UNDER NWS QUALITY CONTROL. THEY ALSO MAY NOT
  REPORT WEATHER SUCH AS PRECIPITATION OR FOG.

INZ001>027-241800-
NORTHERN INDIANA

CITY           SKY/WX    TMP DP  RH WIND       PRES   REMARKS
GARY*          CLOUDY    39  32  75 NW5       29.90S
KNOX*          CLOUDY    37  19  48 N8        29.87F
SOUTH BEND     CLOUDY    38  33  82 NW10      29.86F
ELKHART*       CLOUDY    39  32  75 W9        29.85F
GOSHEN         CLOUDY    39  32  76 NW14      29.85S
FORT WAYNE     CLOUDY    41  34  76 NW10      29.84F
PERU/GRISSOM   CLOUDY    40  35  80 NW7       29.85F

$$
INZ028>050-241800-
CENTRAL INDIANA

CITY           SKY/WX    TMP DP  RH WIND       PRES   REMARKS
LAFAYETTE      CLOUDY    39  34  82 NW7       29.90S
KOKOMO*        CLOUDY    40  34  79 NW10      29.88
MUNCIE*        CLOUDY    41  34  76 NW10      29.86F
INDIANAPOLIS   CLOUDY    40  33  76 NW8       29.89S

$$
MIZ043>046-050>051-056>058-064>065-071>073-077>080-241800-
SOUTHWEST LOWER MICHIGAN

CITY           SKY/WX    TMP DP  RH WIND       PRES   REMARKS
BATTLE CREEK   CLOUDY    39  35  86 NW13      29.83F
BENTON HARBOR  CLOUDY    38  35  89 W12       29.87S
COLDWATER*     CLOUDY    38  37  94 NW7       29.81F
HILLSDALE*     CLOUDY    37  36  93 NW13      29.79F
HOLLAND        CLOUDY    39  36  89 NW8       29.85F
GRAND RAPIDS   CLOUDY    38  34  85 NW10      29.83F
KALAMAZOO      DRIZZLE   39  34  82 NW14      29.84F
STURGIS*       CLOUDY    38  35  87 NW10      29.82F
THREE RIVERS*  CLOUDY    38  35  86 NW12      29.85S

$$
OHZ001>008-015>018-024>025-241800-
NORTHWEST OHIO

CITY           SKY/WX    TMP DP  RH WIND       PRES   REMARKS
DEFIANCE       CLOUDY    40  36  86 NW14      29.82F
FINDLAY        CLOUDY    42  38  85 W14       29.79F
TOLEDO EXPRESS CLOUDY    41  39  93 W12G22    29.79F
TOLEDO METCALF CLOUDY    42  40  92 NW10      29.79F
LIMA           CLOUDY    40  39  97 NW15      29.81F

$$
AND FOR LAKE MICHIGAN COASTAL AND OPEN LAKE BUOY OBSERVATIONS

STATION/POSITION TEMP    WIND        PRES    VSBY  WAVE
                 AIR SEA DIR/SP/G                  HT/PER
                 (F)     (DEG/KT/KT) (MB)    (MI)  (FT/S)
CALUMET HARBOR    37     310/  4/  5 1011.7F
BURNS HARBOR      35     330/  5/  6 1012.9S

$$
&&



USA.gov is the U.S. government's official web portal to all federal, state and local government web resources and services.